Orbital Elements at Epoch 2459200.5 (2020-Dec-17.0) TDB
Reference: JPL 12 (heliocentric ecliptic J2000)
Element | Value | Uncertainty (1-sigma) | Units |
e | .1545096779459298 | 5.2619e-08 | |
a | 2.465556286374713 | 1.5343e-08 | au |
q | 2.084603978609393 | 1.3356e-07 | au |
i | 6.873694435423572 | 5.732e-06 | deg |
node | 1.296181616920824 | 5.1113e-05 | deg |
peri | 336.7215814361524 | 5.5491e-05 | deg |
M | 187.0053208874726 | 2.5446e-05 | deg |
tp | 2459880.018138460909 (2022-Oct-27.51813846) | 0.00010339 | TDB |
period | 1414.06967602053 3.87 | 1.32e-05 3.614e-08 | d yr |
n | .2545843434059847 | 2.3764e-09 | deg/d |
Q | 2.846508594140032 | 1.7714e-08 | au |
|
| | Orbit Determination Parameters
Additional Information
|